When you browse on this site, cookies collect data to enhance your experience and personalize the content and advertising you see.
Visit our Privacy Policy to learn more. By continuing to use the site, you agree to this use of cookies and data.
  • In Latvia
  • List of Countries
  • For 7 days
  • Water Temperature
  • Satellite Maps
  • Weather Map
  • Weather Widgets
  • user-avatar
    Login

    Hourly Weather Sozopol

    Today, 16 January, Wednesday

    Time Temperature Precipitation Wind Pressure Humidity
    00:00 -4°C° 0 mm 7 mps 756 mmHg 70%
    01:00 -4°C° 0 mm 6 mps 757 mmHg 69%
    02:00 -4°C° 0 mm 5 mps 757 mmHg 69%
    03:00 -4°C° 0 mm 5 mps 757 mmHg 68%
    04:00 -4°C° 0 mm 5 mps 757 mmHg 67%
    05:00 -4°C° 0 mm 5 mps 758 mmHg 66%
    06:00 -4°C° 0 mm 5 mps 758 mmHg 66%
    07:00 -4°C° 0 mm 5 mps 757 mmHg 67%
    08:00 -3°C° 0 mm 6 mps 757 mmHg 68%
    09:00 -2°C° 0 mm 6 mps 757 mmHg 63%
    10:00 0°C° 0 mm 7 mps 757 mmHg 59%
    11:00 +2°C° 0 mm 7 mps 757 mmHg 54%
    12:00 +3°C° 0 mm 7 mps 757 mmHg 53%
    13:00 +4°C° 0 mm 7 mps 756 mmHg 51%
    14:00 +5°C° 0 mm 7 mps 756 mmHg 50%
    15:00 +4°C° 0 mm 6 mps 756 mmHg 55%
    16:00 +3°C° 0 mm 6 mps 756 mmHg 60%
    17:00 +3°C° 0 mm 5 mps 757 mmHg 64%
    18:00 +3°C° 0 mm 4 mps 757 mmHg 66%
    19:00 +3°C° 0 mm 4 mps 757 mmHg 69%
    20:00 +1°C° 0 mm 4 mps 758 mmHg 71%
    21:00 +1°C° 0 mm 4 mps 758 mmHg 71%
    22:00 +1°C° 0 mm 4 mps 759 mmHg 72%
    23:00 +1°C° 0 mm 4 mps 759 mmHg 73%

    Tomorrow, 17 January, Thursday

    Time Temperature Precipitation Wind Pressure Humidity
    00:00 +1°C° 0 mm 4 mps 760 mmHg 72%
    01:00 +1°C° 0 mm 4 mps 760 mmHg 72%
    02:00 +2°C° 0 mm 3 mps 761 mmHg 72%
    03:00 +1°C° 0 mm 3 mps 761 mmHg 72%
    04:00 +1°C° 0 mm 3 mps 761 mmHg 72%
    05:00 +1°C° 0 mm 3 mps 761 mmHg 72%
    06:00 +1°C° 0 mm 3 mps 761 mmHg 71%
    07:00 +2°C° 0 mm 3 mps 761 mmHg 70%
    08:00 +2°C° 0 mm 3 mps 761 mmHg 70%
    09:00 +3°C° 0 mm 3 mps 761 mmHg 65%
    10:00 +5°C° 0 mm 3 mps 761 mmHg 60%
    11:00 +8°C° 0 mm 3 mps 762 mmHg 55%
    12:00 +9°C° 0 mm 3 mps 761 mmHg 54%
    13:00 +9°C° 0 mm 3 mps 761 mmHg 54%
    14:00 +10°C° 0 mm 3 mps 760 mmHg 54%
    15:00 +9°C° 0 mm 3 mps 760 mmHg 62%
    16:00 +8°C° 0 mm 3 mps 760 mmHg 69%
    17:00 +7°C° 0 mm 3 mps 760 mmHg 77%
    18:00 +5°C° 0 mm 3 mps 760 mmHg 80%
    19:00 +5°C° 0 mm 3 mps 760 mmHg 83%
    20:00 +4°C° 0 mm 3 mps 760 mmHg 86%
    21:00 +4°C° 0 mm 3 mps 760 mmHg 85%
    22:00 +4°C° 0 mm 3 mps 760 mmHg 83%
    23:00 +4°C° 0 mm 3 mps 760 mmHg 82%

    Day after tomorrow, 18 January, Friday

    Time Temperature Precipitation Wind Pressure Humidity
    00:00 +4°C° 0 mm 3 mps 760 mmHg 82%
    01:00 +4°C° 0 mm 4 mps 760 mmHg 82%
    02:00 +4°C° 0 mm 4 mps 760 mmHg 82%
    03:00 +4°C° 0 mm 3 mps 759 mmHg 84%
    04:00 +4°C° 0 mm 3 mps 759 mmHg 85%
    05:00 +4°C° 0 mm 3 mps 759 mmHg 87%
    06:00 +4°C° 0 mm 3 mps 759 mmHg 88%
    07:00 +4°C° 0 mm 3 mps 759 mmHg 88%
    08:00 +4°C° 0 mm 3 mps 759 mmHg 89%
    09:00 +5°C° 0 mm 3 mps 759 mmHg 83%
    10:00 +7°C° 0 mm 4 mps 759 mmHg 77%
    11:00 +10°C° 0 mm 4 mps 759 mmHg 70%
    12:00 +10°C° 0 mm 4 mps 759 mmHg 68%
    13:00 +10°C° 0 mm 5 mps 759 mmHg 66%
    14:00 +10°C° 0 mm 5 mps 758 mmHg 64%
    15:00 +10°C° 0 mm 4 mps 759 mmHg 69%
    16:00 +9°C° 0 mm 3 mps 759 mmHg 74%
    17:00 +8°C° 0 mm 2 mps 759 mmHg 80%
    18:00 +8°C° 0 mm 2 mps 759 mmHg 82%
    19:00 +7°C° 0 mm 2 mps 760 mmHg 84%
    20:00 +7°C° 0 mm 2 mps 760 mmHg 86%
    21:00 +7°C° 0 mm 2 mps 760 mmHg 87%
    22:00 +6°C° 0 mm 2 mps 761 mmHg 87%
    23:00 +6°C° 0 mm 2 mps 761 mmHg 88%

    19 January, Saturday

    Time Temperature Precipitation Wind Pressure Humidity
    00:00 +6°C° 0 mm 2 mps 761 mmHg 87%
    01:00 +6°C° 0 mm 2 mps 761 mmHg 86%
    02:00 +5°C° 0 mm 2 mps 761 mmHg 86%
    03:00 +5°C° 0 mm 2 mps 761 mmHg 84%
    04:00 +4°C° 0 mm 2 mps 761 mmHg 83%
    05:00 +4°C° 0 mm 2 mps 761 mmHg 81%
    06:00 +4°C° 0 mm 2 mps 762 mmHg 82%
    07:00 +4°C° 0 mm 2 mps 762 mmHg 83%
    08:00 +2°C° 0 mm 3 mps 762 mmHg 83%
    09:00 +3°C° 0 mm 3 mps 762 mmHg 81%
    10:00 +5°C° 0 mm 2 mps 762 mmHg 78%
    11:00 +6°C° 0 mm 2 mps 763 mmHg 75%
    12:00 +6°C° 0 mm 2 mps 762 mmHg 75%
    13:00 +7°C° 0 mm 2 mps 762 mmHg 74%
    14:00 +7°C° 0 mm 2 mps 761 mmHg 74%
    15:00 +7°C° 0 mm 3 mps 761 mmHg 77%
    16:00 +5°C° 0 mm 3 mps 761 mmHg 81%
    17:00 +5°C° 0 mm 3 mps 761 mmHg 84%
    18:00 +4°C° 0 mm 3 mps 761 mmHg 85%
    19:00 +4°C° 0 mm 3 mps 761 mmHg 87%
    20:00 +5°C° 0 mm 2 mps 762 mmHg 88%
    21:00 +5°C° 0.1 mm 2 mps 761 mmHg 89%
    22:00 +5°C° 0.1 mm 2 mps 761 mmHg 89%
    23:00 +5°C° 0.1 mm 2 mps 761 mmHg 89%

    20 January, Sunday

    Time Temperature Precipitation Wind Pressure Humidity
    00:00 +5°C° 0.1 mm 2 mps 761 mmHg 90%
    01:00 +6°C° 0.1 mm 2 mps 761 mmHg 91%
    02:00 +6°C° 0.1 mm 2 mps 760 mmHg 92%
    03:00 +6°C° 0 mm 2 mps 760 mmHg 92%
    04:00 +6°C° 0 mm 2 mps 760 mmHg 93%
    05:00 +6°C° 0 mm 2 mps 759 mmHg 93%
    06:00 +6°C° 0 mm 2 mps 759 mmHg 93%
    07:00 +6°C° 0 mm 2 mps 759 mmHg 93%
    08:00 +6°C° 0 mm 2 mps 759 mmHg 92%
    09:00 +8°C° 0 mm 2 mps 759 mmHg 87%
    10:00 +9°C° 0 mm 3 mps 759 mmHg 82%
    11:00 +11°C° 0 mm 3 mps 759 mmHg 77%
    12:00 +11°C° 0 mm 4 mps 758 mmHg 76%
    13:00 +11°C° 0 mm 4 mps 758 mmHg 75%
    14:00 +12°C° 0 mm 4 mps 757 mmHg 74%
    15:00 +11°C° 0 mm 4 mps 757 mmHg 77%
    16:00 +10°C° 0 mm 3 mps 757 mmHg 79%
    17:00 +10°C° 0 mm 3 mps 757 mmHg 82%
    18:00 +10°C° 0 mm 3 mps 757 mmHg 83%
    19:00 +8°C° 0 mm 4 mps 757 mmHg 84%
    20:00 +8°C° 0 mm 4 mps 757 mmHg 85%
    21:00 +9°C° 0 mm 3 mps 758 mmHg 86%
    22:00 +9°C° 0 mm 3 mps 758 mmHg 87%
    23:00 +8°C° 0 mm 3 mps 758 mmHg 88%

    21 January, Monday

    Time Temperature Precipitation Wind Pressure Humidity
    00:00 +8°C° 0.3 mm 3 mps 759 mmHg 88%
    01:00 +6°C° 0.3 mm 4 mps 759 mmHg 88%
    02:00 +6°C° 0.3 mm 5 mps 759 mmHg 88%
    03:00 +5°C° 0.4 mm 5 mps 760 mmHg 86%
    04:00 +5°C° 0.4 mm 5 mps 760 mmHg 84%
    05:00 +3°C° 0.4 mm 5 mps 761 mmHg 82%
    06:00 +2°C° 0.1 mm 5 mps 761 mmHg 82%
    07:00 +2°C° 0.1 mm 5 mps 762 mmHg 83%
    08:00 +1°C° 0.1 mm 5 mps 763 mmHg 83%
    09:00 +1°C° 0 mm 5 mps 764 mmHg 79%
    10:00 +1°C° 0 mm 5 mps 764 mmHg 75%
    11:00 +1°C° 0 mm 5 mps 765 mmHg 72%
    12:00 +1°C° 0 mm 5 mps 765 mmHg 69%
    13:00 +1°C° 0 mm 5 mps 766 mmHg 67%
    14:00 +2°C° 0 mm 5 mps 766 mmHg 65%
    15:00 +1°C° 0 mm 5 mps 766 mmHg 65%
    16:00 +1°C° 0 mm 5 mps 767 mmHg 66%
    17:00 0°C° 0 mm 5 mps 767 mmHg 66%
    18:00 0°C° 0 mm 5 mps 768 mmHg 66%
    19:00 0°C° 0 mm 5 mps 768 mmHg 65%
    20:00 0°C° 0 mm 5 mps 768 mmHg 64%
    21:00 0°C° 0 mm 5 mps 768 mmHg 65%
    22:00 0°C° 0 mm 5 mps 769 mmHg 65%
    23:00 -1°C° 0 mm 5 mps 769 mmHg 65%
    Show more